Tracking 30995 objects as of 7-Jul-2025
HD Live streaming from Space Station
objects crossing your sky now

DMSP 5D-2 F13 DEB

Track DMSP 5D-2 F13 DEB now!
10-day predictions


NORAD ID: 42268
Int'l Code: 1995-015GJ
Perigee: 801.0 km
Apogee: 970.6 km
Inclination: 98.7 °
Period: 102.5 minutes
Semi major axis: 7256 km
RCS: Unknown
Launch date: March 24, 1995
Source: United States (US)
Launch site: AIR FORCE WESTERN TEST RANGE (AFWTR)

Note: This is SATELLITE DEBRIS
Your satellite tracking list
Your tracking list is empty




NASA's NSSDC Master Catalog

Two Line Element Set (TLE):
1 42268U 95015GJ  25187.51956841  .00003008  00000-0  18034-2 0  9993
2 42268  98.7488  33.3597 0116851 245.4540 113.4412 14.04372408518715
Source of the keplerian elements: AFSPC